Lawrence, MA

7:35 AM EST on November 13, 2019 (GMT -0500)
Lawrence Municipal

Weather History for KLWM - August, 2019

Change the Weather History Date:

Sunday, August 11, 2019

  Actual Average Record
Temperature  
Mean Temperature 66 °F -  
Max Temperature 77 °F 81 °F 98 °F (1944)
Min Temperature 55 °F 61 °F 50 °F (1972)
Cooling Degree Days 1    
Growing Degree Days 16 (Base 50)    
Moisture  
Dew Point 53 °F    
Average Humidity 62    
Maximum Humidity 84    
Minimum Humidity 43    
Precipitation  
Precipitation 0.00 in - - ()
Sea Level Pressure  
Sea Level Pressure 29.94 in    
Wind  
Wind Speed 6 mph (West)    
Max Wind Speed 14 mph    
Max Gust Speed 20 mph    
Visibility 10 miles    
Events      
Averages and records for this station are not official NWS values.
T = Trace of Precipitation, MM = Missing Value Source: NWS Daily Summary

Daily Weather History Graph

Daily Weather History Graph

Search for Another Location

Airport or City:

Astronomy

Aug. 11, 2019 Rise Set
Actual Time 5:46 AM EDT 7:52 PM EDT
Civil Twilight 5:15 AM EDT 8:23 PM EDT
Nautical Twilight 4:37 AM EDT 9:01 PM EDT
Astronomical Twilight 3:55 AM EDT 9:42 PM EDT
Moon 5:31 PM EDT (8/11) 2:01 AM EDT (8/11)
Length of Visible Light 15h 07m
Length of Day
14h 05m
Waxing Gibbous, 87% of the Moon is Illuminated
Aug 11
Waxing Gibbous
Aug 15
Full
Aug 23
Last Quarter
Aug 30
New
Sep 5
First Quarter

Hourly Weather History & Observations

Time (EDT) Temp. Dew Point Humidity Pressure Visibility Wind Dir Wind Speed Gust Speed Precip Events Conditions
12:54 AM 60.1 °F 50.0 °F 69% 29.90 in 10.0 mi West 3.5 mph - N/A   Clear
1:54 AM 60.1 °F 50.0 °F 69% 29.90 in 10.0 mi West 4.6 mph - N/A   Clear
2:54 AM 57.9 °F 51.1 °F 78% 29.91 in 10.0 mi West 5.8 mph - N/A   Clear
3:54 AM 57.0 °F 51.1 °F 81% 29.91 in 10.0 mi West 5.8 mph - N/A   Clear
4:54 AM 55.9 °F 51.1 °F 84% 29.92 in 10.0 mi WSW 6.9 mph - N/A   Clear
5:54 AM 55.9 °F 51.1 °F 84% 29.94 in 10.0 mi West 4.6 mph - N/A   Clear
6:54 AM 57.9 °F 53.1 °F 84% 29.96 in 10.0 mi West 3.5 mph - N/A   Clear
7:54 AM 62.1 °F 53.1 °F 72% 29.98 in 10.0 mi Variable 6.9 mph - N/A   Clear
8:54 AM 66.0 °F 53.1 °F 63% 29.97 in 10.0 mi WNW 8.1 mph - N/A   Clear
9:54 AM 68.0 °F 54.0 °F 61% 29.97 in 10.0 mi WNW 9.2 mph - N/A   Clear
10:54 AM 71.1 °F 53.1 °F 53% 29.96 in 10.0 mi NW 8.1 mph 16.1 mph N/A   Clear
11:54 AM 73.0 °F 53.1 °F 49% 29.96 in 10.0 mi WNW 9.2 mph - N/A   Clear
12:54 PM 75.0 °F 52.0 °F 44% 29.96 in 10.0 mi NW 13.8 mph - N/A   Mostly Cloudy
1:54 PM 75.0 °F 52.0 °F 44% 29.95 in 10.0 mi West 12.7 mph - N/A   Partly Cloudy
2:54 PM 77.0 °F 54.0 °F 45% 29.94 in 10.0 mi WSW 11.5 mph - N/A   Partly Cloudy
4:54 PM 77.0 °F 53.1 °F 43% 29.92 in 10.0 mi West 11.5 mph - N/A   Partly Cloudy
5:54 PM 75.9 °F 53.1 °F 45% 29.92 in 10.0 mi West 9.2 mph 19.6 mph N/A   Clear
6:55 PM 73.4 °F 53.6 °F 50% 29.94 in 10.0 mi West 6.9 mph - N/A   Scattered Clouds
7:54 PM 73.9 °F 55.0 °F 52% 29.93 in 10.0 mi WSW 6.9 mph - N/A   Scattered Clouds
8:54 PM 69.1 °F 55.9 °F 63% 29.95 in 10.0 mi SSW 4.6 mph - N/A   Clear
9:54 PM 68.0 °F 55.9 °F 65% 29.96 in 10.0 mi South 4.6 mph - N/A   Clear